Warning: Javascript must be enabled to use all the features on this page!


Page Loading - Please Wait...

Click to hideNews Bulletins
  • Have your voice heard. Have a few minutes? We're surveying users about their experience with Water Data for the Nation (WDFN). Please take a few minutes to complete our online survey.
  • See the Water Data for the Nation Blog for the latest news and updates.

Peak Streamflow for Utah

Click to hide state-specific text
UTAH

USGS 10118000 BEAR RIVER NEAR COLLINSTON, UT

Box Elder County, Utah
Hydrologic Unit Code 16010204
Latitude  41°50'03", Longitude 112°03'16" NAD27
Drainage area 6,271  square miles
Gage datum 4,276.13 feet above NGVD29
Output formats
Table
Graph
Tab-separated file
peakfq (watstore) format
Reselect output format
Water
Year
Date Gage
Height
(feet)
Stream-
flow
(cfs)
1890 1890-05-10   8,2206
1891 1891-04-28   5,0006
1892 1892-05-31   6,2606
1893 1893-05-22   6,4706
1894 1894-06-03   7,7706
1895 1895-05-11   4,9906
1896 1896-06-14   7,4206
1897 1897-05-23   10,6006
1898 1898-06-02   5,3206
1899 1899-06-23 5.603 6,6506
1900 1900-05-30 4.003 3,7806
1901 1901-05-06   4,9506
1902 1902-06-02   3,3406
1903 1903-03-16   4,5006
1904 1904-05-25   6,7006
1905 1905-05-04 3.153 2,7606
1906 1906-06-02 5.853 7,0806
1907 1907-06-11 7.203 10,2006
1908 1908-06-20 4.903 5,4706
1909 1909-06-07 7.703 11,6006
1910 1910-03-18 6.203 7,8006
1911 1911-02-02 7.003 8,8006
1912 1912-06-17 5.503 6,3806
1913 1913-04-10 5.403 6,2506
1914 1914-05-27   6,5801,6
1915 1915-02-11 3.113 2,6106
1916 1916-03-23 5.453 6,4406
1917 1917-05-19 6.553 8,1706
1918 1918-03-13 4.543 4,6506
1919 1919-04-01 3.903 3,8406
1920 1920-05-25 5.543 6,5106
1921 1921-06-16 5.853 6,7606
1922 1922-05-10 7.653 10,1006
1923 1923-06-02 5.453 6,0606
1924 1924-04-16 4.683 4,8706
1925 1925-02-05 4.403 4,2806
1926 1926-04-09 3.933 3,3806
1927 1927-02-22   4,3101,6
1928 1928-03-25   4,2101,6
1929 1929-03-12   4,0001,6
1930 1930-02-20   3,1001,6
1931 1931-03-11   1,7201,6
1932 1932-05-16   4,5501,6
1933 1933-05-28   3,4101,6
1934 1933-12-21   1,6401,6
1935 1935-05-29   2,9201,6
1936 1936-04-26 5.983 7,2606
1937 1937-05-12 5.003 5,3306
1938 1938-04-28 5.103 5,5206
1939 1939-03-22 4.966 3,9406
1940 1940-01-17 4.72 3,6106
1941 1941-02-21 4.73 3,6106
1942 1942-05-25 4.93 3,8906
1943 1943-04-23 5.58 4,8306
1944 1944-05 4.77Bd 3,6506,Bd
1945 1945-06-10 6.47 6,2106
1946 1946-04-21 7.00 7,1606
1947 1947-06 4.82Bd 3,7606,Bd
1948 1948-05-05 4.92 3,9006
1949 1949-05-24 4.86 3,8406
1950 1950-06-13 6.76 6,7906
1951 1951-02-11 5.94 5,4106
1952 1952-05-01 6.88 7,0206
1953 1953-06-10   3,5101,6
1954 1954-04-10   2,2101,6
1955 1955-05-10   2,8801,6
1956 1955-12-28   3,8201,6
1957 1957-05-23 5.50 4,9206
1958 1958-04-23 4.78 3,8206
1959 1959-04-16 4.67 3,6406
1960 1960-01-22 4.75 3,7806
1961 1960-11-02 4.72 3,7306
1962 1962-02-14 8.23 9,7106
1963 1963-05-13 4.83 3,9006
1964 1964-05-13 4.81 3,9206
1965 1965-05-13 4.83 3,9006
1966 1966-03-15 4.82 3,8806
1967 1967-05-24 5.53 4,9706
1968 1968-03-20 5.55 5,0806
1969 1969-05-06 6.06 5,9906
1970 1969-11-18 4.58 3,6006
1971 1971-06-14 6.81 7,3706
1972 1972-04-21 5.51 5,1306
1973 1973-03-11 4.80 3,9806
1974 1974-03-21 4.77 3,9606
1975 1975-05-21 6.48 6,7206
1976 1976-04-08 5.62 5,2606
1977 1976-10-07 4.68 3,8506
1978 1978-04-13 4.61 3,7806
1979 1979-03-19 4.58 3,5606
1980 1980-06-06 7.24 8,3406
1981 1981-05-29 4.76 3,9706
1982 1982-05-06   7,0901,6
1983 1983-06-01 7.33 8,4906
1984 1984-05-18   11,2001,6
1985 1985-04-07   8,5501,6
1986 1986-02-20 8.68 12,7006
1987 1986-12-03 4.63 3,8106
1988 1988-04-11   2,8001,6
1989 1989-03-12 5.43 3,7106
1990 1989-11-15 5.03 3,2606
1991 1991-06-04 5.33 3,7306
1992 1992-02-23   1,9401,6
1993 1993-05-20   4,3601,6
1994 1994-04-24   2,8701,6
1995 1995-06-11 5.88 4,2606
1996 1996-05-22 6.10 4,6206
?
  Peak Gage-Height Qualification Codes.
?
  Peak Streamflow Qualification Codes.